Regional Weather Roundup
Issued by NWS Charleston, SC

Current Version | Previous Version | Graphics & Text | Print | Product List | Glossary On
Versions: 1 2 3 4 5 6 7 8 9 10 11 12 13 14 15 16 17 18 19 20 21 22 23 24 25 26 27 28 29 30 31 32 33 34 35 36 37 38 39 40 41 42 43 44 45 46 47 48 49 50
000
ASUS42 KCHS 020712
RWRCHS

REGIONAL WEATHER ROUNDUP
NATIONAL WEATHER SERVICE CHARLESTON SC
300 AM EDT SUN AUG 02 2015

NOTE: "FAIR" INDICATES FEW OR NO CLOUDS BELOW 12,000 FEET WITH NO
SIGNIFICANT WEATHER AND/OR OBSTRUCTIONS TO VISIBILITY.

NOT ALL STATIONS ARE QUALITY CONTROLLED BY THE NATIONAL
WEATHER SERVICE. USE DATA WITH CAUTION...ESPECIALLY
DEWPOINT OBSERVATIONS.

SCZ027-030-031-034>040-042>050-020800-
...SOUTHEAST SOUTH CAROLINA...

CITY           SKY/WX    TMP DP  RH WIND       PRES   REMARKS
N CHARLESTON   CLEAR     76  73  91 CALM      29.90F
WATERFRONT PRK   N/A     80  77  90 VRB2      29.89S
MOUNT PLEASANT LGT RAIN  73  73 100 CALM      29.90F
JOHNS ISLAND   FAIR      75  73  94 CALM      29.90F
PINOPOLIS      NOT AVBL
MONCKS CORNER  FAIR      73  72  94 CALM      29.91F FOG
SUMMERVILLE    FAIR      72  72 100 CALM      29.91F
BEAUFORT MCAS  CLEAR     77  75  93 CALM      29.89F
BEAUFORT ARPT  FAIR      77  77 100 CALM      29.89F
HILTON HEAD IS MOCLDY    81  77  89 S3        29.90F
WALTERBORO     SUNNY     75  73  94 CALM      29.91F FOG
ALLENDALE      FOG       73  73 100 CALM      29.90F VSB<1/4

...SOUTHERN MIDLANDS AND PEE DEE...

CITY           SKY/WX    TMP DP  RH WIND       PRES   REMARKS
GEORGETOWN     NOT AVBL
KINGSTREE      NOT AVBL
ORANGEBURG     CLOUDY    76  72  87 CALM      29.92F
BARNWELL       FAIR      73  73 100 CALM      29.92F
AIKEN          FAIR      72  68  88 CALM      29.95F
MANNING        HVY RAIN  72  72 100 CALM      29.92F
COLUMBIA       CLEAR     76  70  82 CALM      29.91F
SUMTER         CLEAR     76  71  86 W3        29.90F
FLORENCE       CLEAR     76  74  93 CALM      29.91F
MYRTLE BEACH   MOCLDY    75  70  83 CALM      29.92F
N MYRTLE BEACH PTCLDY    76  72  87 W5        29.90F

$$

GAZ063-065-086>088-099>101-113>116-118-119-134>141-150-020800-
...SOUTHEAST GEORGIA...

CITY           SKY/WX    TMP DP  RH WIND       PRES   REMARKS
SAVANNAH ARPT  CLEAR     76  73  91 CALM      29.90F
HUNTER AAF     PTCLDY    77  76  97 SW2       29.87F
FORT STEWART   NOT AVBL
STATESBORO     MOCLDY    73  32  22 CALM      29.90F FOG
SYLVANIA       FOG       75  75 100 CALM      29.91F VSB 1/4
CLAXTON        NOT AVBL

...CSRA...CENTRAL AND FAR SOUTHEAST GEORGIA...

CITY           SKY/WX    TMP DP  RH WIND       PRES   REMARKS
THOMSON        CLEAR     74  73  99 CALM      29.96S
AUGUSTA-BUSH   CLEAR     73  71  93 CALM      29.90F
AUGUSTA-DANIEL MOCLDY    76  71  85 CALM      29.92F
SWAINSBORO     FAIR     N/A N/A N/A CALM      29.91F
VIDALIA        CLOUDY    73  73 100 E3        29.90F FOG
EASTMAN        PTSUNNY   74  74 100 E3        29.92S
HAZLEHURST     CLOUDY    76  76 100 CALM      29.88F FOG
ALMA           CLOUDY    78  75  90 CALM      29.88F
WAYCROSS       CLOUDY    79  78  97 S5        29.88F
JESUP          CLOUDY    79  77  94 SW3       29.89F
BAXLEY         CLOUDY    77  73  88 CALM      29.88F FOG
BRUNSWICK      CLOUDY    79  73  83 S8        29.90F
SAINT SIMONS   CLOUDY    78  73  84 S6        29.89F

$$

SCZ027-028-034-036>038-045-046-048>050-GAZ119-141-020800-
...LAKE AND SUPPLEMENTAL COASTAL OBSERVATIONS...

STATION/POSITION TIME  TEMP    WIND        PRES    WAVE   SWELL
                       AIR SEA DIR/SP/G            HT/PER HT/PER/DIR
                 (UTC) (F)     (DEG/KT/KT) (MB)    (FT/S) (FT/S/D)
UPR LAKE MARION  NOT AVBL
WINYAH BAY       NOT AVBL
LAKE MURRAY      0600   80     220/  5/  6 1012.9S
ACE BASIN NERRS  NOT AVBL
FORT PULASKI     0600   80 86  220/  4/  6 1013.3F
SAPELO ISLAND    0600   77     200/  7     1013.0S

$$

ANZ835-935-AMZ111-154-330-350-352-354-370-450-454-472-020800-
...C-MAN AND BUOY OBSERVATIONS...

STATION/POSITION TIME  TEMP    WIND        PRES    WAVE   SWELL
                       AIR SEA DIR/SP/G            HT/PER HT/PER/DIR
                 (UTC) (F)     (DEG/KT/KT) (MB)    (FT/S) (FT/S/D)
BUOY 41004       0650   82 84  250/ 12/ 14 1012.1F   4/ 6   3/ 6
BUOY 41008       0650   80 83  200/ 16/ 19 1012.5F   4/ 6
FOLLY BEACH CMAN 0600   81     210/  9/ 10 1013.2F
CAPERS NEARSHORE 0608   81     230/  8/ 10 1013.2F
FRIPP NEARSHORE  0600   82     210/ 12/ 14 1012.8F


STATION/POSITION TIME  TEMP    WIND        PRES    WAVE   SWELL
                       AIR SEA DIR/SP/G            HT/PER HT/PER/DIR
                 (UTC) (F)     (DEG/KT/KT) (MB)    (FT/S) (FT/S/D)
5E ST. MARYS GA  0621      83                N/A     4/ 6
FRYING PAN BUOY  0650   82 83  210/  8/ 10 1013.0F   5/ 7   5/170/ 7
BUOY 41025       0650   81 84  270/ 14/ 17 1012.2F   4/ 7   2/170/ 7
CAPE LOOKOUT NC  0600   80     260/ 12/ 14 1012.5F
BUOY 41002       0650   83 81  220/ 17/ 21 1015.4F   6/ 6
BUOY 41010       0620   83 83  190/ 10/ 12 1015.3F
ST AUGUSTINE FL  0700   75 80  210/  6/  8 1013.7F


$$



USA.gov is the U.S. government's official web portal to all federal, state and local government web resources and services.